Weather History for Fort Myers, FL

Change the Weather History Date:

Friday, November 16, 2012

  Actual Average Record
Temperature  
Mean Temperature 66 °F 72 °F  
Max Temperature 69 °F 81 °F 90 °F (1988)
Min Temperature 64 °F 62 °F 34 °F (1940)
Degree Days  
Heating Degree Days 0 1  
Month to date heating degree days 5 1  
Since 1 July heating degree days 8 3  
Cooling Degree Days 2 7  
Month to date cooling degree days 78 131  
Year to date cooling degree days 4178 3779  
Growing Degree Days 16 (Base 50)    
Moisture  
Dew Point 60 °F    
Average Humidity 79    
Maximum Humidity 87    
Minimum Humidity 78    
Precipitation  
Precipitation 0.00 in 0.07 in 4.68 in (2002)
Month to date precipitation 0.66 1.28  
Year to date precipitation 47.43 53.54  
Sea Level Pressure  
Sea Level Pressure 30.11 in    
Wind  
Wind Speed 8 mph (NNE)    
Max Wind Speed 12 mph    
Max Gust Speed -    
Visibility 10 miles    
Events      
T = Trace of Precipitation, MM = Missing Value Source: NWS Daily Summary

Daily Weather History Graph

Daily Weather History Graph

Search for Another Location

Airport:

Trip Planner

Search our weather history database for the weather conditions in past years. The results will help you decide how hot, cold, wet, or windy it might be!

Date:

Astronomy

Nov. 16, 2012 Rise Set
Actual Time 6:47 AM EST 5:36 PM EST
Civil Twilight 6:23 AM EST 6:01 PM EST
Nautical Twilight 5:55 AM EST 6:29 PM EST
Astronomical Twilight 5:27 AM EST 6:56 PM EST
Moon 9:36 AM EST (11/16) 8:38 PM EST (11/16)
Length of Visible Light 11h 37m
Length of Day
10h 48m
Waxing Crescent, 11% of the Moon is Illuminated
Nov 16
Waxing Crescent
Nov 20
First Quarter
Nov 28
Full
Dec 6
Last Quarter
Dec 13
New

Hourly Weather History & Observations

Time (EST) Temp. Dew Point Humidity Pressure Visibility Wind Dir Wind Speed Gust Speed Precip Events Conditions
12:53 AM - - N/A% 30.11 in 10.0 mi East 8.1 mph - N/A   Overcast
1:17 AM - - N/A% 30.10 in 10.0 mi ENE 6.9 mph - N/A   Overcast
1:53 AM - - N/A% 30.11 in 10.0 mi ENE 5.8 mph - N/A   Overcast
2:53 AM - - N/A% 30.11 in 10.0 mi NNE 9.2 mph - N/A   Overcast
3:53 AM - - N/A% 30.11 in 10.0 mi NNE 8.1 mph - N/A   Overcast
4:53 AM - - N/A% 30.11 in 10.0 mi North 6.9 mph - N/A   Overcast
5:53 AM - - N/A% 30.11 in 10.0 mi NNE 6.9 mph - N/A   Overcast
6:53 AM - - N/A% 30.12 in 10.0 mi NNE 8.1 mph - N/A   Overcast
7:23 AM - - N/A% 30.12 in 10.0 mi North 9.2 mph - N/A   Overcast
7:53 AM - - N/A% 30.14 in 10.0 mi NNE 9.2 mph - N/A   Overcast
8:53 AM - - N/A% 30.14 in 7.0 mi NE 10.4 mph - N/A   Overcast
9:53 AM - - N/A% 30.14 in 10.0 mi East 9.2 mph - N/A   Overcast
10:53 AM 66.2 °F 62.6 °F 88% 30.13 in 10.0 mi ENE 11.5 mph - N/A   Overcast
11:53 AM 69.8 °F 62.6 °F 78% 30.14 in 10.0 mi NNE 6.9 mph - N/A   Overcast
12:00 PM - - N/A% 30.12 in 10.0 mi NE 4.6 mph - N/A   Overcast
12:53 PM - - N/A% 30.11 in 10.0 mi North 9.2 mph - N/A   Overcast
1:53 PM - - N/A% 30.09 in 10.0 mi North 10.4 mph - N/A   Overcast
2:53 PM 69.8 °F 62.6 °F 78% 30.08 in 10.0 mi North 11.5 mph - N/A   Mostly Cloudy
3:53 PM 69.8 °F 62.6 °F 78% 30.08 in 10.0 mi NNE 11.5 mph - N/A   Scattered Clouds
4:53 PM 69.8 °F 62.6 °F 78% 30.07 in 10.0 mi NNE 8.1 mph - N/A   Scattered Clouds
5:53 PM 64.4 °F 57.2 °F 77% 30.08 in 10.0 mi NNE 6.9 mph - N/A   Scattered Clouds
6:53 PM 64.4 °F 57.2 °F 77% 30.10 in 10.0 mi North 6.9 mph - N/A   Clear
7:53 PM 64.4 °F 57.2 °F 77% 30.11 in 9.0 mi NNE 6.9 mph - N/A   Partly Cloudy
8:53 PM 64.4 °F 57.2 °F 77% 30.10 in 10.0 mi NE 8.1 mph - N/A   Clear
9:53 PM - - N/A% 30.11 in 10.0 mi NNE 6.9 mph - N/A   Clear
10:53 PM - - N/A% 30.11 in 10.0 mi NNE 8.1 mph - N/A   Clear
11:53 PM - - N/A% 30.10 in 10.0 mi NE 9.2 mph - N/A   Clear